COSMOS 1275 DEB, 42131

Orbit data source: Space-Track

COSMOS 1275 DEB, 42131 is space debris in LEO originally from a launch on Thu, 04 Jun 1981 UTC launched from the Plesetsk Missile And Space Complex (PKMTR). Debris objects in space refer to the collection of defunct objects orbiting the Earth. Examples of debris include non-operational satellites, rocket bodies, and fragments generated from explosions, collisions, or faulty payload assembly.

Loading next visibility...
Identifier
42131, 1981-053QT
Orbit
LEO
Last TLE update
8 months ago
Origin
Manufacturer
Unknown
Mission
Spacecraft
Bus & Motor
Unknown
Mass
Unknown
Launch date (UTC)
1981-06-04 (44 years ago)
Launch vehicle
Unknown
Launch site
Plesetsk Missile And Space Complex (PKMTR)
Object type
Payload
Rocket body
Debris
Shape & HBR
Unknown
Radar Cross Section
Small (<0.1 m²)

Expand to show TLE details & history

TLE from 8 months ago
0 COSMOS 1275 DEB
1 42131U 81053QT  24301.30213918  .00033845  00000-0  98006-2 0  9993
2 42131  82.8749 135.1696 0019025 318.6456 221.6378 14.44175064568422
Epoch: 2024-10-27T07:15Z
TLE epoch observation values (Epoch: 2024-10-27T07:15:04.825Z)
Latitude
-0.25776°
Longitude
170.2869°
Altitude
757.906 km
Speed
7.47 km/s
True Right ascension
21h 00m 48s
True Declination
0° 15' 22"
Sunlit
Object was in daylight at epoch
Visualization orbit readout
Latitude
77.66181°
Longitude
-75.03409°
Altitude
703.208 km
Speed
7.505 km/s
Apparent Right ascension
04h 48m 47s
Apparent Declination
23° 46' 10"
Sunlit
Object is in daylight
Visualization observer readout
Local Sidereal Time
16:51:39
Azimuth
0.733° NNE
Elevation
-26.311°
Doppler factor
1
Orbital elements
Apogee altitude
755.339 km
Perigee altitude
728.248 km
Semi-major axis
7,119.931 km
Eccentricity
0.0019
Inclination
82.8749°
RAAN
135.1696°
Arg. of periapsis
318.6456°
True anomaly
Unknown
Mean anomaly
221.6378°
Eccentric anomaly
Unknown
Mean motion
3.61268 °/min
Orbital period
99.65 mins
BSTAR
0.0098006
Loading maneuver chart data...
Loading SW <> Apogee altitude chart data...
Loading historical data...
Loading historical data...
Loading historical data...
Loading historical data...
Loading historical data...
Loading historical data...
Loading historical data...

COSMOS 1275 DEB Visibility forecast

Observer location: undefined°, undefined°

Span
Click to sort rows by Start time (UTC) header in descending order
Start Az.
Max El. time (UTC)
Max El. Az.
Max El.
End time (UTC)
End Az.
6 mins2025-07-02 06:29:08.169Z124.718° SE2025-07-02 06:32:08.169Z83.824° E16.875°2025-07-02 06:35:08.169Z44.228° NE
7 mins2025-07-02 08:08:08.169Z222.829° SW2025-07-02 08:11:08.169Z295.952° NW33.342°2025-07-02 08:15:08.169Z352.526° N
7 mins2025-07-02 18:25:08.169Z11.837° NNE2025-07-02 18:28:08.169Z98.252° ESE38.557°2025-07-02 18:32:08.169Z157.385° SSE
|